Regional Weather Roundup
Issued by NWS

Home | Current Version | Previous Version | Text Only | Print | Product List | Glossary On
Versions: 1 2 3 4 5 6 7 8 9 10 11 12 13 14 15 16 17 18 19 20 21 22 23 24 25 26 27 28 29 30 31 32 33 34 35 36 37 38 39 40 41 42 43 44 45 46 47 48 49 50
000
ASUS46 KSEW 280610
RWRWA

WASHINGTON REGIONAL WEATHER ROUNDUP
NATIONAL WEATHER SERVICE SEATTLE WA
1100 PM PDT FRI MAR 27 2015

NOTE:"FAIR" INDICATES FEW OR NO CLOUDS BELOW 12,000 FEET WITH NO
SIGNIFICANT WEATHER AND/OR OBSTRUCTIONS TO VISIBILITY.

WAZ505-507>509-280700-
SEATTLE, TACOMA, EVERETT, AND VICINITY

CITY           SKY/WX    TMP DP  RH WIND       PRES   REMARKS
EVERETT        LGT RAIN  51  47  86 S24       29.97R
6HR MIN TEMP:  51; 6HR MAX TEMP:  63; 6HR PCP:  0.04;

BOEING FIELD   LGT RAIN  55  47  74 S12G21    30.04R
6HR MIN TEMP:  55; 6HR MAX TEMP:  67; 6HR PCP: TRACE;

RENTON         LGT RAIN  54  46  74 S13G20    30.04R
6HR MIN TEMP:  54; 6HR MAX TEMP:  65; 6HR PCP:  0.01;

SEATAC AIRPORT LGT RAIN  52  47  83 SW13G21   30.06R
6HR MIN TEMP:  52; 6HR MAX TEMP:  63; 6HR PCP:  0.01;

JBLM-MCCHORD   LGT RAIN  51  51  99 S9        30.06R
6HR MIN TEMP:  51; 6HR MAX TEMP:  64; 6HR PCP:  0.16;

PUYALLUP       DRIZZLE   52  52 100 VRB6G13   30.07R
BREMERTON      CLOUDY    50  48  93 S16G30    30.04R
6HR MIN TEMP:  50; 6HR MAX TEMP:  61; 6HR PCP:  0.02;

JBLM-FT LEWIS  LGT RAIN  52  52 100 S7        30.07R
                                      6HR PCP:  0.07;

TACOMA NARROWS LGT RAIN  51  48  89 S10       30.06R
6HR MIN TEMP:  50; 6HR MAX TEMP:  61; 6HR PCP:  0.09;

$$

WAZ001-503-506-510-514-515-280700-
NORTH INTERIOR

CITY           SKY/WX    TMP DP  RH WIND       PRES   REMARKS
BELLINGHAM     LGT RAIN  53  49  86 W3        29.93S
6HR MIN TEMP:  53; 6HR MAX TEMP:  61; 6HR PCP:  0.34;

FRIDAY HARBOR  CLOUDY    52  47  83 SW10G21   29.95R
6HR MIN TEMP:  51; 6HR MAX TEMP:  59;

EASTSOUND      CLOUDY    54  48  82 SW15G22   29.91R
PORT ANGELES   MOCLDY    51  46  83 W12       29.95R
6HR MIN TEMP:  50; 6HR MAX TEMP:  58; 6HR PCP:  0.11;

NAS WHIDBEY    CLOUDY    54  50  86 VRB3      29.96R
6HR MIN TEMP:  53; 6HR MAX TEMP:  60; 6HR PCP:  0.21;

ARLINGTON      CLOUDY    54  46  76 S16G22    29.98R
6HR MIN TEMP:  54; 6HR MAX TEMP:  70; 6HR PCP:  0.02;

BURLINGTON     MOCLDY    52  50  93 MISG      29.96R FOG
$$

WAZ020-022-039-040-504-511-512-280700-
SOUTHWEST INTERIOR

CITY           SKY/WX    TMP DP  RH WIND       PRES   REMARKS
SHELTON        CLOUDY    50  48  93 SW16      30.02R
6HR MIN TEMP:  50; 6HR MAX TEMP:  57; 6HR PCP:  0.06;

OLYMPIA        CLOUDY    51  47  86 SW12      30.07R
6HR MIN TEMP:  51; 6HR MAX TEMP:  63; 6HR PCP:  0.06;

CHEHALIS       CLOUDY    54  48  82 SW5       30.10R
KELSO          CLOUDY    54  45  71 CALM      30.17R
6HR MIN TEMP:  54; 6HR MAX TEMP:  63; 6HR PCP:  0.09;

VANCOUVER      CLOUDY    54  45  71 W5        30.16R
6HR MIN TEMP:  54; 6HR MAX TEMP:  67;

SCAPPOOSE, OR  CLOUDY    52  47  83 S5        30.15R
6HR MIN TEMP:  52; 6HR MAX TEMP:  68; 6HR PCP:  0.05;

PORTLAND, OR   CLOUDY    55  46  71 W8        30.16R
6HR MIN TEMP:  55; 6HR MAX TEMP:  69; 6HR PCP: TRACE;

$$

WAZ021-516-517-280700-
WASHINGTON COAST

CITY           SKY/WX    TMP DP  RH WIND       PRES   REMARKS
FORKS          MOCLDY    49  47  93 SW12      30.03R
6HR MIN TEMP:  49; 6HR MAX TEMP:  53; 6HR PCP:  0.58;

HOQUIAM        CLOUDY    52  50  93 SW20      30.08R
6HR MIN TEMP:  51; 6HR MAX TEMP:  55; 6HR PCP: TRACE;

ASTORIA, OR    LGT RAIN  53  48  83 W15       30.13R
6HR MIN TEMP:  51; 6HR MAX TEMP:  56; 6HR PCP:  0.26;

$$

WAZ019-023-024-040-518-519-280700-
CASCADE MOUNTAINS AND COLUMBIA GORGE

CITY           SKY/WX    TMP DP  RH WIND       PRES   REMARKS
TROUTDALE, OR  LGT RAIN  55  48  77 SW9       30.15R
6HR MIN TEMP:  55; 6HR MAX TEMP:  68; 6HR PCP:  0.03;

THE DALLES, OR CLOUDY    59  45  59 W14G24    30.01R
6HR MIN TEMP:  58; 6HR MAX TEMP:  75;

$$

WAZ026-027-041>044-520-521-280700-
EAST SLOPES

CITY           SKY/WX    TMP DP  RH WIND       PRES   REMARKS
OMAK           CLOUDY    60  49  66 SE9       29.79F
6HR MIN TEMP:  58; 6HR MAX TEMP:  69; 6HR PCP: TRACE;

WENATCHEE      CLOUDY    63  48  58 NW12      29.82R
6HR MIN TEMP:  61; 6HR MAX TEMP:  71;

ELLENSBURG     CLOUDY    58  44  60 NW23G29   29.88S
6HR MIN TEMP:  58; 6HR MAX TEMP:  74;

YAKIMA         CLOUDY    64  39  39 S12       29.87S
6HR MIN TEMP:  63; 6HR MAX TEMP:  80;

$$

WAZ028-034-035-280700-
COLUMBIA BASIN

CITY           SKY/WX    TMP DP  RH WIND       PRES   REMARKS
EPHRATA        CLOUDY    56  49  77 SW9       29.80F
6HR MIN TEMP:  56; 6HR MAX TEMP:  70;

MOSES LAKE     CLOUDY    63  40  42 SW9       29.82F
6HR MIN TEMP:  60; 6HR MAX TEMP:  71;

PASCO          RAIN      61  47  59 SW14      29.90R
6HR MIN TEMP:  61; 6HR MAX TEMP:  79; 6HR PCP:  0.04;

HERMISTON, OR  CLOUDY    59  47  64 SW10      29.93R
6HR MIN TEMP:  57; 6HR MAX TEMP:  78; 6HR PCP:  0.04;

$$

WAZ036>038-280700-
NORTHEAST WASHINGTON

CITY           SKY/WX    TMP DP  RH WIND       PRES   REMARKS
SPOKANE GEIGER LGT RAIN  55  49  80 SW3       29.85S
6HR MIN TEMP:  55; 6HR MAX TEMP:  70; 6HR PCP: TRACE;

SPOKANE FELTS  CLOUDY    55  50  83 CALM      29.84F
6HR MIN TEMP:  52; 6HR MAX TEMP:  73; 6HR PCP: TRACE;

FAIRCHILD AFB  LGT RAIN  54  50  86 SW8       29.85S
6HR MIN TEMP:  54; 6HR MAX TEMP:  68; 6HR PCP: TRACE;

COEURDALENE,ID MOCLDY    52  46  82 CALM      29.84F
6HR MIN TEMP:  52; 6HR MAX TEMP:  72; 6HR PCP:  0.01;

DEER PARK      CLOUDY    50  46  86 CALM      29.85F
6HR MIN TEMP:  48; 6HR MAX TEMP:  70;

$$

WAZ029>033-280700-
SOUTHEAST WASHINGTON

CITY           SKY/WX    TMP DP  RH WIND       PRES   REMARKS
PULLMAN        TSTM      55  51  86 S15       29.93R FOG
6HR MIN TEMP:  53; 6HR MAX TEMP:  72;

LEWISTON, ID   LGT RAIN  60  53  77 N15       29.83F
6HR MIN TEMP:  60; 6HR MAX TEMP:  76; 6HR PCP: TRACE;

WALLA WALLA    CLOUDY    65  46  50 SW18G29   29.89R
6HR MIN TEMP:  62; 6HR MAX TEMP:  78;

PENDLETON, OR  CLOUDY    56  44  64 W21       29.93R
6HR MIN TEMP:  56; 6HR MAX TEMP:  74;

$$


USA.gov is the U.S. government's official web portal to all federal, state and local government web resources and services.